[[{"header":{"parameterUnit":"m.s-1","parameterCategory":1,"la1":30.2992,"la2":30.254,"lo1":-89.0895,"lo2":-89.0443,"dy":0.0025,"dx":0.0025,"nx":19,"ny":19,"refTime":"2026-03-14T09:00:00:Z","depth":0,"parameterNumber":2,"parameterNumberName":"U-component_of_WINDS"},"data":[0,0,0,-4.7486,-4.7491,-4.7756,-4.7757,-4.8095,-4.8098,0,0,0,0,0,0,0,0,0,0,0,-4.7407,-4.741,-4.7485,-4.7492,-4.7756,-4.7758,-4.8094,-4.8098,0,0,0,0,0,0,0,0,0,0,0,-4.7406,-4.7409,-4.7412,-4.7493,-4.7756,-4.7758,-4.8093,-4.7894,0,0,0,0,0,0,0,0,0,0,-4.7637,-4.7565,-4.7408,-4.7412,-4.7494,-4.7756,-4.7758,-4.7884,-4.7906,-4.7974,0,-4.8036,0,-4.8072,-4.812,-4.8122,0,0,0,-4.7491,-4.7547,-4.7618,-4.7412,-4.7497,-4.7755,-4.7637,-4.7897,-4.7922,-4.8004,-4.8041,-4.8053,-4.8078,-4.8123,-4.8124,-4.8518,-4.852,0,0,-4.7477,-4.7455,-4.7601,-4.7634,-4.7594,-4.7628,-4.7645,-4.7912,-4.7951,-4.8042,-4.8061,-4.8083,-4.8125,-4.8127,-4.8517,-4.8519,0,0,0,-4.7435,-4.7445,-4.751,-4.762,-4.7668,-4.7636,-4.7655,-4.7939,-4.7962,-4.8065,-4.8087,-4.8127,-4.8131,-4.8515,-4.8517,-4.8586,0,0,0,-4.7426,-4.7421,-4.7503,-4.7493,-4.7663,-4.7807,-4.7676,-4.7943,-4.7974,-4.8086,-4.8127,-4.8134,-4.8513,-4.8516,-4.8579,-4.8621,0,0,0,-4.739,-4.7416,-4.7455,-4.7491,-4.7604,-4.7803,-4.7842,-4.795,-4.7988,-4.8122,-4.8135,-4.8511,-4.8516,-4.8574,-4.8612,-4.8715,0,0,0,-4.7345,-4.7514,-4.7456,-4.7653,-4.7602,-4.7845,-4.784,-4.8022,-4.8146,-4.8129,-4.8513,-4.8517,-4.8572,-4.8606,-4.8709,-4.8796,-4.8831,0,0,-4.7545,-4.7537,-4.7655,-4.761,-4.7857,-4.7806,-4.8063,-4.8197,-4.8231,-4.842,-4.843,-4.8581,-4.8611,-4.8714,-4.9041,-4.9069,0,0,0,-4.771,-4.7794,-4.7864,-4.7981,-4.8087,-4.818,-4.8277,-4.8327,-4.8489,-4.8324,-4.865,-4.8668,-4.8729,-4.8771,-4.8795,-4.8847,-4.8537,-4.8536,-4.8536,-4.7961,-4.7994,-4.8189,-4.8253,-4.8366,-4.8463,-4.8557,-4.864,-4.8641,-4.8718,-4.8773,-4.8968,-4.9016,-4.9034,-4.9088,-4.8825,-4.8825,-4.8825,-4.8825,-4.8254,-4.8376,-4.8373,-4.856,-4.8594,-4.8752,-4.8852,-4.8847,-4.8998,-4.8929,-4.8985,-4.8903,-4.9063,-4.9112,-4.8831,-4.883,-4.8829,-4.8829,-4.8828,-4.8418,-4.8482,-4.854,-4.8709,-4.8836,-4.8896,-4.904,-4.9067,-4.9092,-4.9148,-4.9206,-4.9205,-4.9204,-4.9175,-4.9175,-4.9176,-4.9177,-4.9177,-4.9178,-4.8565,-4.8627,-4.8746,-4.8872,-4.8948,-4.9053,-4.9152,-4.9228,-4.9318,-4.9326,-4.9327,-4.9317,-4.9075,-4.901,-4.9188,-4.9186,-4.9185,-4.9184,-4.9183,-4.8843,-4.8784,-4.8967,-4.9043,-4.9192,-4.9314,-4.9347,-4.9499,-4.9566,-4.9635,-4.9616,-4.9433,-4.9426,-4.9408,-4.9354,-4.961,-4.961,-4.9611,-4.9611,-4.8979,-4.8979,-4.9169,-4.929,-4.9411,-4.9458,-4.9661,-4.9739,-4.9811,-4.9854,-4.9822,-4.9755,-4.9735,-4.974,-4.9714,-4.9664,-4.9994,-4.9994,-4.9994,-4.915,-4.9163,-4.933,-4.9399,-4.9517,-4.9617,-4.9808,-4.9945,-5.0015,-5.001,-4.9887,-4.9871,-4.9764,-4.9728,-4.9717,-4.9676,-4.9586,0,0]},{"header":{"parameterUnit":"m.s-1","parameterCategory":1,"la1":30.2992,"la2":30.254,"lo1":-89.0895,"lo2":-89.0443,"dy":0.0025,"dx":0.0025,"nx":19,"ny":19,"refTime":"2026-03-14T09:00:00:Z","depth":0,"parameterNumber":3,"parameterNumberName":"V-component_of_WINDS"},"data":[0,0,0,3.5176,3.5179,3.5302,3.5302,3.5464,3.5465,0,0,0,0,0,0,0,0,0,0,0,3.5145,3.5146,3.5176,3.5179,3.5302,3.5302,3.5463,3.5465,0,0,0,0,0,0,0,0,0,0,0,3.5144,3.5146,3.5148,3.518,3.5302,3.5302,3.5463,3.5368,0,0,0,0,0,0,0,0,0,0,3.5248,3.5225,3.5146,3.5148,3.5181,3.5301,3.5302,3.5364,3.5374,3.5411,0,3.5447,0,3.5459,3.5477,3.5477,0,0,0,3.5175,3.5216,3.5245,3.5148,3.5182,3.5301,3.5245,3.5369,3.5381,3.5425,3.5449,3.5455,3.5462,3.5478,3.5478,3.571,3.5711,0,0,3.5168,3.5169,3.5237,3.5253,3.5237,3.5241,3.5249,3.5377,3.5402,3.545,3.5459,3.5464,3.5479,3.548,3.5709,3.5711,0,0,0,3.5152,3.5165,3.519,3.5247,3.5269,3.5245,3.5254,3.5396,3.5405,3.546,3.5466,3.548,3.5482,3.5708,3.571,3.5775,0,0,0,3.5147,3.5155,3.5187,3.5189,3.5266,3.5335,3.5271,3.5396,3.541,3.5465,3.548,3.5483,3.5706,3.5709,3.577,3.5805,0,0,0,3.5135,3.5154,3.5174,3.5189,3.5242,3.5332,3.5348,3.5399,3.5414,3.5477,3.5484,3.5705,3.5708,3.5766,3.5798,3.5865,0,0,0,3.5122,3.5229,3.5175,3.5296,3.5241,3.5373,3.5347,3.5445,3.5507,3.5481,3.5706,3.5709,3.5764,3.5793,3.5861,3.5922,3.5948,0,0,3.5258,3.5246,3.5317,3.5272,3.5414,3.5354,3.5505,3.5559,3.5563,3.566,3.5666,3.5772,3.5797,3.5865,3.6096,3.6117,0,0,0,3.536,3.5412,3.5449,3.5509,3.5555,3.5596,3.5628,3.5648,3.5731,3.5614,3.5815,3.583,3.587,3.5899,3.5916,3.5949,3.5723,3.5723,3.5723,3.5553,3.5554,3.5671,3.5687,3.5746,3.5778,3.5825,3.5857,3.5839,3.5887,3.5915,3.6056,3.609,3.6103,3.6138,3.5949,3.5949,3.5949,3.5949,3.575,3.5822,3.5798,3.5904,3.5903,3.5991,3.6026,3.6011,3.6091,3.6035,3.6069,3.6006,3.6126,3.6156,3.5954,3.5953,3.5953,3.5952,3.5952,3.5875,3.591,3.5934,3.6021,3.6088,3.6099,3.6178,3.6175,3.6172,3.6206,3.6235,3.6234,3.6231,3.6221,3.6221,3.6222,3.6222,3.6222,3.6223,3.5994,3.602,3.6088,3.6146,3.6184,3.6233,3.6267,3.6304,3.6343,3.6334,3.6334,3.6311,3.6139,3.6094,3.623,3.6229,3.6228,3.6227,3.6227,3.6192,3.6147,3.6252,3.629,3.6357,3.6423,3.6419,3.6494,3.6523,3.6562,3.6532,3.6406,3.6392,3.6378,3.6341,3.6533,3.6533,3.6533,3.6533,3.6296,3.629,3.6396,3.6457,3.6517,3.6524,3.664,3.6667,3.6687,3.6705,3.6677,3.6629,3.6615,3.661,3.659,3.6556,3.6798,3.6798,3.6798,3.6417,3.6416,3.6517,3.6538,3.6591,3.6635,3.6744,3.6814,3.6827,3.6809,3.6719,3.6708,3.663,3.6605,3.6582,3.6553,3.6489,0,0]}]]